Weather History for West Palm Beach, FL

Change the Weather History Date:

Tuesday, February 19, 2013

  Actual Average Record
Temperature  
Mean Temperature 69 °F 68 °F  
Max Temperature 78 °F 77 °F 87 °F (2012)
Min Temperature 59 °F 60 °F 33 °F (1900)
Degree Days  
Heating Degree Days 0 2  
Month to date heating degree days 34 38  
Since 1 July heating degree days 82 195  
Cooling Degree Days 4 5  
Month to date cooling degree days 78 83  
Year to date cooling degree days 299 191  
Growing Degree Days 18 (Base 50)    
Moisture  
Dew Point 58 °F    
Average Humidity 69    
Maximum Humidity 84    
Minimum Humidity 53    
Precipitation  
Precipitation 0.09 in 0.10 in 2.00 in (1904)
Month to date precipitation 1.92 1.83  
Year to date precipitation 2.71 4.96  
Snow  
Snow 0.00 in - - ()
Month to date snowfall 0.0  
Since 1 July snowfall 0.0  
Snow Depth 0.00 in    
Sea Level Pressure  
Sea Level Pressure 30.15 in    
Wind  
Wind Speed 10 mph (SSE)    
Max Wind Speed 21 mph    
Max Gust Speed 25 mph    
Visibility 10 miles    
Events Rain    
T = Trace of Precipitation, MM = Missing Value Source: NWS Daily Summary

Daily Weather History Graph

Daily Weather History Graph

Search for Another Location

Airport:

Trip Planner

Search our weather history database for the weather conditions in past years. The results will help you decide how hot, cold, wet, or windy it might be!

Date:

Astronomy

Feb. 19, 2013 Rise Set
Actual Time 6:53 AM EST 6:15 PM EST
Civil Twilight 6:29 AM EST 6:39 PM EST
Nautical Twilight 6:02 AM EST 7:06 PM EST
Astronomical Twilight 5:35 AM EST 7:33 PM EST
Moon 1:02 PM EST (2/19) 2:07 AM EST (2/19)
Length of Visible Light 12h 09m
Length of Day
11h 22m
Waxing Gibbous, 67% of the Moon is Illuminated
Feb 19
Waxing Gibbous
Feb 25
Full
Mar 4
Last Quarter
Mar 11
New
Mar 19
First Quarter

Hourly Weather History & Observations

Time (EST) Temp. Dew Point Humidity Pressure Visibility Wind Dir Wind Speed Gust Speed Precip Events Conditions
12:53 AM 68.0 °F 55.0 °F 63% 30.19 in 10.0 mi ESE 15.0 mph - N/A   Mostly Cloudy
1:53 AM 69.1 °F 51.1 °F 53% 30.18 in 10.0 mi SE 10.4 mph - N/A   Mostly Cloudy
2:53 AM 68.0 °F 52.0 °F 56% 30.17 in 10.0 mi SSE 8.1 mph - N/A   Mostly Cloudy
3:53 AM 66.9 °F 51.1 °F 57% 30.16 in 10.0 mi SSE 10.4 mph - N/A   Scattered Clouds
4:53 AM 66.0 °F 51.1 °F 59% 30.15 in 10.0 mi South 5.8 mph - N/A   Partly Cloudy
5:53 AM 64.9 °F 51.1 °F 61% 30.16 in 10.0 mi South 4.6 mph - N/A   Partly Cloudy
6:53 AM 61.0 °F 51.1 °F 70% 30.18 in 10.0 mi Calm Calm - N/A   Partly Cloudy
7:53 AM 62.1 °F 54.0 °F 75% 30.19 in 10.0 mi NW 3.5 mph - N/A   Partly Cloudy
8:53 AM 72.0 °F 55.9 °F 57% 30.18 in 10.0 mi SSE 12.7 mph 17.3 mph N/A   Partly Cloudy
9:53 AM 73.9 °F 57.0 °F 55% 30.19 in 10.0 mi SE 17.3 mph - N/A   Scattered Clouds
10:53 AM 75.9 °F 57.9 °F 54% 30.19 in 10.0 mi South 18.4 mph 24.2 mph N/A   Mostly Cloudy
11:53 AM 75.0 °F 57.9 °F 55% 30.18 in 10.0 mi SSE 12.7 mph - N/A   Mostly Cloudy
1:53 PM 75.9 °F 60.1 °F 58% 30.13 in 10.0 mi SSE 12.7 mph 21.9 mph N/A   Mostly Cloudy
2:53 PM 75.9 °F 62.1 °F 62% 30.11 in 10.0 mi SSE 15.0 mph - N/A   Mostly Cloudy
3:53 PM 75.9 °F 62.1 °F 62% 30.10 in 10.0 mi SSE 13.8 mph 24.2 mph N/A   Scattered Clouds
4:53 PM 73.9 °F 62.1 °F 66% 30.09 in 10.0 mi SSE 16.1 mph 23.0 mph N/A   Mostly Cloudy
5:53 PM 73.0 °F 63.0 °F 71% 30.09 in 10.0 mi SSE 12.7 mph - N/A   Mostly Cloudy
7:53 PM 71.1 °F 64.9 °F 81% 30.12 in 10.0 mi South 5.8 mph - 0.08 in   Scattered Clouds
8:53 PM 70.0 °F 64.9 °F 84% 30.11 in 10.0 mi South 4.6 mph - N/A   Scattered Clouds
9:53 PM 70.0 °F 64.9 °F 84% 30.12 in 10.0 mi Calm Calm - N/A   Mostly Cloudy
10:53 PM 69.1 °F 64.9 °F 87% 30.12 in 10.0 mi West 4.6 mph - N/A   Overcast
11:53 PM 68.0 °F 64.9 °F 90% 30.12 in 10.0 mi West 9.2 mph - 0.00 in Rain Light Rain